Location: Bassanne
(44.5594°N, 0.0893°W)
Time: 15:55:02
(UTC+00:00)

Daily predictions for brighter satellites

Satellite Brightness Start Highest point End
(mag) Time Altitude Azimuth Time Altitude Azimuth Time Altitude Azimuth
Cosmos 1606 Rocket 3.9 17:25:30 10° SSW 17:29:52 72° W 17:34:13 10° N
Lacrosse 5 rocket 4.3 17:28:03 10° W 17:30:19 15° SW 17:32:38 10° SSW
Cosmos 1271 Rocket 3.4 17:26:40 10° NNW 17:30:38 63° W 17:34:35 10° S
Lacrosse 5 2.3 17:25:47 10° NW 17:30:39 44° NNE 17:35:30 10° ESE
Unknown 3.7 17:29:08 10° NW 17:32:24 42° NNE 17:35:40 10° E
Cosmos 1821 Rocket 4.2 17:28:40 10° N 17:34:48 79° W 17:40:59 10° S
Cosmos 1605 Rocket 4.2 17:29:44 10° N 17:35:39 46° ENE 17:41:27 10° SSE
Cosmos 839 Rocket 4.2 17:29:25 10° NNW 17:35:41 87° NE 17:42:53 10° SSE
Cosmos 1328 3.8 17:32:40 10° N 17:36:36 61° E 17:40:30 10° SSE
Cosmos 1934 Rocket 4.0 17:30:20 10° N 17:36:42 71° E 17:43:03 10° SSE
Cosmos 1300 4.4 17:34:49 10° ESE 17:36:47 14° E 17:38:46 10° NE
CORIOLIS 4.2 17:32:06 10° SSE 17:37:27 90° SW 17:42:51 10° NNW
Cosmos 1242 Rocket 2.6 17:36:27 10° N 17:40:10 89° ESE 17:43:49 10° S
H-2A R/B 3.2 17:41:04 10° S 17:44:57 71° WSW 17:48:54 10° NNW
ATLAS 3B R/B 3.9 17:40:42 10° SSE 17:45:10 19° ESE 17:49:36 10° ENE
FALCON 9 DEB 3.6 17:41:49 10° NW 17:45:11 45° NNE 17:48:30 10° E
Cosmos 1727 Rocket 4.5 17:42:58 10° SSE 17:48:30 36° E 17:54:04 10° NNE
NOAA 12 4.1 17:44:39 10° SSE 17:49:56 85° ENE 17:55:18 10° NNW
Cosmos 2082 Rocket 2.6 17:44:52 10° NNW 17:50:18 43° ENE 17:55:41 10° SE
Cosmos 1812 Rocket 4.4 17:47:12 10° SSE 17:51:00 29° E 17:54:52 10° NNE
CENTAUR R/B 3.6 17:47:46 10° SSE 17:51:59 21° ESE 17:56:38 10° ENE
Cosmos 1939 Rocket 4.3 17:49:33 10° ESE 17:52:23 19° ENE 17:55:16 10° NNE
Cosmos 2228 4.3 17:51:27 10° SSW 17:55:38 44° WNW 17:59:48 10° N
BREEZE-M DEB (TANK) 2.9 17:52:07 10° SW 17:57:46 56° SSE 17:59:43 16° ENE
Falcon 9 debris 3.2 17:55:20 10° NW 17:58:45 60° NNE 18:01:35 14° ESE
Envisat 3.0 17:56:49 10° SSE 18:01:54 84° ENE 18:07:01 10° NNW
YAOGAN 1 2.8 17:58:06 10° SE 18:02:13 45° ENE 18:06:22 10° N
Unknown 3.5 17:59:06 10° NW 18:02:33 51° NNE 18:05:02 17° E
SKYMED 2 3.5 17:58:55 10° NNE 18:03:15 64° E 18:07:33 10° S
Cosmos 44 4.1 18:00:37 10° S 18:04:57 30° ESE 18:08:22 14° ENE
Shenzhou-11 Module 3.6 18:06:07 10° W 18:08:31 26° SSW 18:10:44 11° SE
Cosmos 1703 3.8 18:05:01 10° NNW 18:08:54 62° W 18:12:44 10° S
COSMOS 2406 4.3 18:04:45 10° NW 18:10:16 48° WSW 18:15:43 10° S
Unknown 4.3 18:07:39 10° NW 18:11:05 33° NNE 18:12:58 20° ENE
Cosmos 1898 Rocket 4.4 18:07:02 10° N 18:11:36 28° ENE 18:14:40 17° ESE
H-2A R/B 3.9 18:11:49 13° ENE 18:11:59 13° NE 18:14:20 10° NNE
COBE Rocket 4.2 18:07:47 10° N 18:12:56 78° WNW 18:17:56 10° SSW
Cosmos 1726 3.5 18:09:30 10° SSW 18:12:58 41° WNW 18:16:27 10° N
BREEZE M DEB (TANK) 2.0 18:10:54 10° WNW 18:13:16 84° SSW 18:17:54 13° ESE
ATLAS 5 CENTAUR R/B 4.2 18:12:08 10° NW 18:14:40 14° NNW 18:17:22 10° N
USA 238 DEB 3.6 18:14:24 10° SSW 18:21:06 82° SE 18:28:02 10° NE
USA 238 3.6 18:14:31 10° SSW 18:21:12 81° SE 18:28:07 10° NE
Cosmos 2100 Rocket 4.3 18:15:46 10° N 18:21:38 43° ENE 18:27:25 10° SE
Cosmos 1908 4.1 18:19:38 10° SSW 18:23:26 51° W 18:27:14 10° N
USA 116 3.3 18:20:35 10° NNE 18:23:51 64° ESE 18:27:26 10° S
Unknown 3.1 18:20:26 10° NW 18:23:58 81° NNE 18:25:41 28° ESE
CZ-4 R/B 1.6 18:20:54 10° S 18:25:06 79° WSW 18:29:21 10° NNW
Abrixas rocket 2.8 18:22:59 10° W 18:25:56 43° N 18:27:03 29° NE
Cosmos 1461 3.5 18:22:08 10° NW 18:26:10 57° WSW 18:30:19 10° SSE
Cosmos 2278 Rocket 2.8 18:24:29 10° SW 18:30:05 59° WNW 18:35:43 10° NNE
Cosmos 2297 3.8 18:29:38 10° S 18:35:08 52° ESE 18:40:41 10° NE
Cosmos 1153 Rocket 4.4 18:30:57 10° N 18:37:09 87° E 18:43:17 10° S
Cosmos 2016 Rocket 4.5 18:31:44 10° N 18:37:32 37° ENE 18:41:16 20° SE
Gbstr 26 Del rocket 4.3 18:31:29 10° WNW 18:37:32 68° SW 18:43:51 14° SE
CSL-04 Rocket 3.8 18:32:43 10° SSE 18:38:15 80° WSW 18:43:45 10° NNW
YAOGAN 6 3.6 18:36:41 10° S 18:40:13 48° W 18:43:45 10° NNW
SJ 16-02 2.3 18:37:34 10° N 18:41:02 29° NE 18:41:02 29° NE
Cosmos 2084 Rocket 3.4 18:37:58 10° NW 18:42:25 88° NE 18:44:44 28° SE
NOSS 3-2 (A) 3.4 18:37:50 10° SW 18:43:36 85° NW 18:50:09 10° NE
Ariane Rocket 3.0 18:39:34 10° SSE 18:44:34 59° ENE 18:49:36 10° N
ARGOS 4.5 18:46:31 21° NE 18:46:31 21° NE 18:49:43 10° NNE
EO 1 Delta rocket 4.3 18:43:38 10° S 18:48:11 64° W 18:53:16 10° NNW
Cosmos 468 Rocket 4.1 18:43:22 10° S 18:48:27 51° ESE 18:52:10 18° NE
Unknown 4.0 18:45:58 10° NW 18:49:36 39° NNE 18:49:50 39° NNE
COSMO-SKYMED 1 4.0 18:47:10 10° N 18:51:14 40° WNW 18:55:18 10° SW
NOAA 11 4.1 18:52:52 10° SSE 18:58:19 88° WSW 19:03:46 10° NNW
Cosmos 990 Rocket 3.9 18:55:28 10° NNW 19:00:39 64° ENE 19:02:11 44° SE
Cosmos 1833 Rocket 4.1 18:55:55 10° NW 19:01:05 39° WSW 19:06:13 10° S
Cosmos 1937 Rocket 3.6 18:56:50 10° NNW 19:01:52 50° ENE 19:02:14 49° E
ADEOS Rocket 3.8 18:56:00 10° NNE 19:02:54 37° E 19:09:17 10° SSE
Cosmos 1570 Rocket 4.1 19:01:52 10° S 19:07:01 53° ESE 19:07:01 53° ESE
Cosmos 1766 Rocket 4.5 19:03:38 10° N 19:06:20 34° NNE 19:06:20 34° NNE
Cosmos 1459 Rocket 3.9 19:02:08 10° N 19:08:24 88° E 19:14:45 10° S
NOSS 3-2 (C) 3.4 19:04:17 10° SW 19:10:03 85° NW 19:14:29 22° NE
Cosmos 1300 3.9 19:08:25 10° SSW 19:12:03 42° WNW 19:15:43 10° N
Lacrosse 5 2.9 19:08:52 10° WNW 19:13:37 42° SW 19:16:09 24° S
Cosmos 2058 3.4 19:10:25 10° NNW 19:14:35 60° W 19:17:29 19° S
Unknown 4.4 19:11:24 10° NW 19:14:22 40° NNW 19:14:22 40° NNW
Cosmos 2061 Rocket 3.8 19:10:02 10° N 19:16:18 75° E 19:19:54 27° SSE
MOS 1 4.1 19:19:18 42° SSE 19:21:19 82° ENE 19:27:00 10° NNW
Okean 3 Rocket 3.5 19:17:03 10° N 19:21:36 84° W 19:21:40 83° WSW
Cosmos 1763 Rocket 3.3 19:19:23 10° SSW 19:24:42 82° ESE 19:25:17 70° NE
Cosmos 1939 Rocket 4.2 19:23:58 14° SSW 19:27:01 39° W 19:30:52 10° NNW
Cosmos 2151 4.0 19:27:07 10° N 19:29:51 38° NNW 19:29:51 38° NNW
Cosmos 2082 Rocket 3.9 19:29:17 10° NW 19:34:12 31° WSW 19:39:05 10° SSW
ATLAS 3B R/B 2.5 19:28:16 10° SW 19:35:01 87° NW 19:37:31 42° NNE
SPOT 3 Rocket 4.2 19:36:38 44° N 19:36:38 44° N 19:40:15 10° N
CENTAUR R/B 2.6 19:35:43 10° SW 19:41:40 76° NW 19:44:14 40° NNE
Cosmos 1943 Rocket 4.4 19:37:14 10° S 19:37:34 12° S 19:37:34 12° S
Cosmos 1864 Rocket 4.3 19:37:44 10° N 19:43:56 89° WSW 19:44:32 75° S
Cosmos 44 4.4 19:41:28 10° WSW 19:46:04 39° NW 19:46:50 37° NNW
Cosmos 2123 Rocket 4.0 19:44:06 10° S 19:50:24 82° W 19:56:42 10° N
H-2A R/B 3.0 19:52:28 41° N 19:52:28 41° N 19:55:56 10° N
Cosmos 1725 Rocket 4.2 19:55:21 10° NNW 20:01:36 68° W 20:02:16 63° SW
ATLAS CENTAUR R/B 4.3 20:08:48 10° NNW 20:09:18 12° NNW 20:09:18 12° NNW
H-2A R/B 4.4 19:35:55 10° WSW 20:19:02 47° S 20:20:46 45° S
SJ 16-02 3.8 20:16:12 10° NW 20:18:03 20° WNW 20:18:03 20° WNW
ADEOS Rocket 4.1 20:41:15 10° N 20:48:31 49° WNW 20:50:26 40° WSW
